Theta_e
293 289 288 286 285 285 285 284 283 280 281 282 281 281 281 280 281 279 278 282 285 285 286 287 287 287 288 288 289 289 290 290 290 291 291 292 292 292
288 288 285 284 284 283 284 283 283 282 281 282 281 280 281 281 281 280 278 281 283 285 285 286 287 287 288 288 289 289 290 290 290 290 290 291 292 292
285 286 285 283 282 282 283 282 283 283 282 279 281 281 279 279 279 279 279 276 276 283 284 285 286 287 287 288 288 289 290 290 290 290 290 290 290 290
286 284 284 283 282 282 282 282 282 281 281 281 279 278 278 278 278 277 277 277 276 280 284 285 286 286 287 287 287 287 288 288 288 288 289 289 288 288
286 284 284 283 282 280 281 281 281 280 280 280 279 278 277 277 276 276 276 276 277 280 284 285 286 286 287 287 287 286 286 287 287 287 287 288 287 287
285 284 284 283 283 281 281 281 280 279 279 278 278 277 276 277 275 275 274 274 274 276 279 280 281 282 284 285 285 285 285 286 286 286 286 286 286 286
285 284 284 283 285 284 282 281 280 279 278 278 277 276 275 274 274 273 272 271 272 272 271 273 273 273 274 279 280 282 284 285 285 284 285 285 285 285
284 283 283 283 285 287 287 286 283 280 279 277 276 276 276 275 274 272 271 270 271 270 269 270 271 271 272 273 278 281 282 283 284 284 284 285 285 285
284 284 282 282 282 283 287 287 286 286 284 279 278 277 275 276 274 270 270 269 270 271 269 268 269 269 272 273 279 281 282 283 283 284 284 284 285 285
284 284 283 282 282 282 282 283 283 283 283 282 279 278 278 277 276 275 273 270 269 270 271 267 266 268 270 271 277 279 281 282 283 283 284 284 285 284
284 284 283 283 285 286 281 281 280 280 284 287 286 285 284 284 278 272 266 265 264 268 269 268 267 267 268 269 271 276 278 279 281 282 283 283 284 284
282 282 283 284 286 287 282 281 280 279 277 275 275 279 280 282 284 274 271 265 264 264 268 267 266 267 268 270 269 270 270 275 278 280 281 282 282 277
283 281 281 287 287 287 286 281 281 279 281 275 272 270 270 271 271 273 273 271 265 267 270 270 265 265 263 266 267 268 269 270 270 272 276 278 279 279
283 282 281 286 287 288 286 285 285 279 276 273 270 272 271 275 275 274 274 274 273 272 272 271 268 264 261 263 265 268 267 268 268 269 270 273 276 277
283 284 285 287 287 287 288 288 284 278 276 275 276 277 276 276 274 272 270 270 271 270 273 272 271 270 268 267 267 268 269 268 268 268 268 268 268 268
286 285 286 285 286 284 283 284 282 281 279 279 278 276 274 270 268 269 265 263 262 263 266 268 269 271 269 268 268 267 268 265 265 266 266 266 267 268
283 283 283 282 282 280 280 280 280 280 279 276 274 274 273 273 268 267 264 261 262 260 261 261 262 266 268 268 266 267 266 266 267 267 264 264 266 267
282 281 280 282 281 281 280 279 278 277 275 276 272 270 269 267 265 263 265 262 260 259 258 259 259 261 258 261 270 266 265 264 265 264 262 262 264 266
281 281 280 280 280 278 277 276 273 269 266 268 268 267 266 264 264 261 262 262 259 259 259 259 260 259 256 262 262 274 266 265 264 264 262 263 263 265
281 279 278 277 276 274 273 271 269 266 264 263 263 261 260 265 264 260 260 260 259 259 258 257 257 259 259 263 265 267 273 266 259 265 266 266 265 271
276 275 274 272 269 268 267 266 264 262 260 259 258 256 255 257 257 257 258 260 261 259 261 260 262 267 266 262 261 262 262 272 271 268 268 267 265 265
272 270 268 268 266 265 264 262 261 259 259 257 254 254 254 255 255 254 254 256 257 259 261 262 262 259 257 262 263 263 264 264 266 271 271 270 265 261
268 267 266 264 263 263 262 261 261 259 257 253 253 253 252 254 252 253 252 253 253 255 256 259 257 256 259 261 261 262 262 262 263 262 262 268 270 270
Wind_Speed
6 7 4 4 3 4 3 4 6 4 5 4 3 4 4 4 5 4 4 6 6 5 6 6 7 7 6 6 7 7 8 8 7 8 10 10 10 9
4 7 5 4 4 3 3 3 2 4 3 3 5 3 5 3 6 5 5 7 8 7 7 7 10 9 10 9 9 10 10 10 9 9 9 11 12 11
6 6 7 7 5 4 3 2 3 3 4 2 0 3 4 5 3 4 5 4 4 9 10 9 11 12 12 12 11 12 12 12 11 11 11 11 11 12
9 7 7 6 7 6 4 5 4 3 4 5 4 4 5 4 3 4 4 4 4 9 12 11 12 12 13 14 13 13 13 14 13 12 12 12 12 11
10 10 9 9 7 5 5 5 4 3 2 3 4 2 3 2 2 4 4 4 4 10 12 13 13 14 14 14 15 14 15 14 14 14 13 13 13 12
9 9 9 11 10 9 7 6 5 4 3 2 2 3 3 1 1 2 4 2 2 3 8 8 9 11 12 14 15 15 16 16 16 15 14 15 13 13
8 8 8 8 10 11 7 7 7 4 3 3 3 2 2 2 3 1 3 1 3 1 1 2 2 3 5 11 13 16 17 18 17 17 16 15 15 14
10 7 7 9 11 13 12 12 11 8 5 3 3 4 4 3 3 2 2 1 3 1 1 4 2 2 4 4 13 16 17 18 18 16 16 15 15 16
9 9 8 6 7 7 11 10 12 13 7 6 5 5 3 5 4 2 3 3 3 2 2 4 1 3 3 5 12 14 15 15 14 14 15 15 16 17
10 9 9 8 8 8 7 7 7 6 6 4 5 5 5 5 5 4 4 1 2 2 2 3 1 3 3 4 10 12 13 13 13 14 15 16 17 18
7 8 9 7 11 16 8 7 5 3 5 9 8 8 8 9 6 4 0 3 3 3 2 1 1 3 2 2 2 4 4 5 9 11 13 15 17 17
5 6 9 9 12 16 7 6 5 5 5 2 0 1 4 6 12 6 4 3 2 3 2 2 2 2 4 2 2 2 2 7 10 12 14 14 16 5
6 5 4 11 11 14 13 7 6 6 6 4 3 2 2 0 1 3 5 3 3 4 4 3 2 1 1 4 2 2 2 3 4 7 13 16 17 16
6 3 4 11 11 12 9 9 9 7 5 4 2 2 2 3 3 3 5 5 3 4 4 5 3 3 3 3 4 1 2 4 4 6 5 10 16 19
4 8 10 11 10 7 8 10 8 6 5 3 3 3 3 2 3 3 1 1 3 3 4 5 5 4 4 5 7 6 8 1 3 5 4 5 5 3
10 7 8 8 8 7 5 6 4 5 5 3 2 1 2 2 1 2 2 1 1 3 4 5 5 6 6 7 8 10 6 4 2 2 3 5 6 7
9 4 5 5 5 3 2 3 3 3 3 3 2 2 2 1 1 1 1 1 2 2 3 3 3 4 6 7 7 8 8 8 7 7 2 7 7 7
4 4 4 6 6 6 5 4 2 3 2 1 1 2 1 1 1 1 1 2 3 2 2 2 1 3 4 6 18 9 6 6 6 6 4 6 9 7
4 5 5 6 5 4 4 3 3 2 2 3 2 1 1 0 1 0 1 2 2 2 3 2 2 2 2 7 4 13 7 6 6 6 6 8 10 10
4 5 6 5 4 4 4 4 4 3 3 3 3 3 2 1 1 1 1 2 2 2 3 1 2 3 3 6 8 7 14 7 3 8 9 8 10 20
6 6 5 6 5 4 4 3 3 3 3 3 2 3 3 2 1 1 2 2 2 1 3 2 4 7 5 2 5 7 5 14 15 10 9 9 11 11
6 6 5 5 4 4 4 3 3 3 3 3 3 2 2 2 1 1 2 1 2 2 2 3 4 3 1 4 9 12 8 5 8 17 19 18 9 9
5 5 4 4 3 3 3 4 3 3 3 3 2 1 1 1 1 2 2 2 2 2 1 4 3 2 4 6 9 9 13 12 8 9 7 16 20 23
Wind_Direction
188 171 172 181 181 176 165 160 147 165 232 221 191 191 195 201 212 203 215 238 245 256 261 255 274 280 279 288 296 299 298 296 299 305 306 302 299 298
171 177 167 147 170 175 164 153 136 146 185 176 214 179 188 208 218 202 225 235 251 250 261 265 265 265 272 273 278 285 288 288 287 287 292 295 296 291
169 186 176 153 161 161 157 158 150 143 143 234 148 189 194 221 220 225 225 224 250 262 260 259 264 267 270 272 274 278 279 278 276 284 283 283 286 287
178 170 180 158 159 161 168 176 171 153 138 175 178 209 216 215 224 245 241 218 225 253 259 264 271 269 272 270 273 277 278 275 271 278 278 274 277 278
171 174 180 165 167 158 168 168 167 155 143 143 191 151 227 209 247 256 255 256 239 249 257 259 261 267 267 268 268 274 279 270 270 272 272 268 266 270
171 172 170 181 175 165 172 177 166 159 149 157 156 195 201 174 199 230 281 246 270 240 247 250 254 259 266 269 268 272 275 267 269 272 269 263 257 265
180 171 178 178 172 172 170 180 166 155 159 177 176 187 192 170 196 193 243 307 279 241 272 268 243 252 260 274 273 268 265 266 265 272 266 258 255 260
182 170 173 176 179 182 194 185 176 167 177 170 180 193 203 200 162 180 190 32 315 269 28 293 159 254 253 236 261 266 265 265 266 268 258 254 256 258
170 170 173 186 161 165 196 193 197 197 172 174 193 198 189 201 151 171 211 173 226 257 119 283 322 280 265 267 278 272 269 267 265 258 260 255 257 261
167 174 176 174 171 165 170 184 196 197 206 199 201 195 191 171 180 174 176 189 325 273 162 242 287 265 293 273 292 283 276 273 269 264 263 259 260 266
171 169 168 166 177 186 174 189 183 193 218 226 221 222 220 208 174 114 109 84 309 276 236 170 304 272 262 302 285 314 320 306 279 275 276 273 271 270
153 160 176 176 174 186 175 172 184 205 179 160 338 304 37 202 191 184 148 164 177 315 240 163 314 357 328 262 283 274 308 302 297 295 293 286 279 259
171 168 183 184 175 189 184 172 187 151 163 132 108 71 39 68 181 167 176 162 166 227 201 155 193 289 223 299 296 272 228 275 279 282 283 284 282 277
169 151 147 169 185 193 192 182 180 124 110 118 120 172 204 220 198 169 195 216 216 217 186 168 212 176 172 286 264 316 253 241 241 262 270 280 286 284
129 151 144 158 167 181 185 190 168 137 141 142 192 209 184 183 117 104 74 200 233 238 227 194 216 218 214 231 275 289 307 253 228 255 265 257 259 252
131 123 139 139 134 137 134 140 147 154 158 176 192 157 110 84 60 164 149 162 67 298 274 226 213 227 247 243 256 275 267 276 241 228 235 254 259 253
123 116 130 131 138 139 131 137 134 128 155 146 167 193 199 140 195 177 169 134 178 258 304 319 295 246 246 254 272 259 269 265 267 279 240 275 272 254
125 140 146 163 162 162 163 152 114 141 146 144 168 179 181 167 193 200 158 178 205 239 244 265 317 352 338 279 226 258 267 267 273 266 244 265 278 272
125 148 154 157 143 137 134 123 119 99 97 109 124 140 111 47 136 243 218 208 262 247 250 195 175 146 269 283 275 240 237 251 263 268 253 247 269 271
113 121 112 111 108 113 116 108 111 86 79 70 76 75 74 112 65 322 282 237 269 277 294 263 184 198 207 276 288 280 286 285 212 277 283 266 251 270
87 85 92 93 92 95 88 79 92 101 92 102 67 75 64 92 35 343 308 311 304 275 289 282 239 233 252 351 292 286 263 274 284 286 294 292 298 291
86 91 85 94 102 104 102 107 107 94 91 83 82 79 68 81 84 283 297 317 278 247 266 288 308 335 345 265 286 293 292 286 287 289 289 292 299 289
87 92 91 87 94 111 110 106 105 104 98 94 80 71 87 50 285 273 275 280 299 318 284 296 287 289 261 263 273 283 289 293 299 301 280 283 289 291